Location: Recife
(8.0585°S, 34.8848°W)
Time: 21:29:15
(UTC-03:00)

S-56A Canister/Altair - Pass Details

Date: 19 April 2026
Orbit: 633 x 2484 km, 38.9° (Epoch: 16 May)

Event Time Altitude Azimuth Distance (km) Brightness Sun altitude
Rises 23:29:47 0° 238° (WSW) 3,037 - -85.6°
Reaches altitude 10° 23:31:55 10° 242° (WSW) 2,218 - -85.2°
Maximum altitude 23:36:52 57° 321° (NW) 1,024 - -84.3°
Drops below altitude 10° 23:43:52 10° 38° (NE) 3,092 - -82.9°
Sets 23:47:20 0° 42° (NE) 4,359 - -82.1°
